TimeCDT,TemperatureF,Dew PointF,Humidity,Sea Level PressureIn,VisibilityMPH,Wind Direction,Wind SpeedMPH,Gust SpeedMPH,PrecipitationIn,Events,Conditions,WindDirDegrees,DateUTC
12:58 AM,73.4,65.8,77,30.06,10.0,North,2.3,-,N/A,,Clear,10,2013-08-28 05:58:00
1:58 AM,70.5,66.2,86,30.05,10.0,NE,5.8,-,N/A,,Clear,50,2013-08-28 06:58:00
2:58 AM,70.3,66.0,86,30.03,10.0,NE,3.5,-,N/A,,Clear,50,2013-08-28 07:58:00
3:58 AM,69.3,65.8,89,30.02,10.0,NE,4.6,-,N/A,,Clear,50,2013-08-28 08:58:00
4:58 AM,69.1,66.0,90,30.03,10.0,NE,4.6,-,N/A,,Clear,40,2013-08-28 09:58:00
5:58 AM,69.3,65.7,88,30.05,10.0,Calm,Calm,-,N/A,,Scattered Clouds,0,2013-08-28 10:58:00
6:58 AM,70.0,65.3,85,30.07,10.0,NNE,3.5,-,N/A,,Mostly Cloudy,20,2013-08-28 11:58:00
7:58 AM,72.9,66.2,80,30.09,10.0,NNE,4.6,-,N/A,,Partly Cloudy,20,2013-08-28 12:58:00
8:57 AM,77.0,66.2,69,30.09,10.0,NNE,8.1,-,N/A,,Clear,30,2013-08-28 13:57:00
9:57 AM,80.6,68.0,65,30.09,10.0,NNE,4.6,-,N/A,,Clear,30,2013-08-28 14:57:00
10:58 AM,84.0,67.5,57,30.09,10.0,North,5.8,-,N/A,,Clear,360,2013-08-28 15:58:00
11:58 AM,84.2,66.2,55,30.09,10.0,Variable,3.5,-,N/A,,Scattered Clouds,0,2013-08-28 16:58:00
12:58 PM,83.8,66.6,56,30.08,10.0,NNE,5.8,-,N/A,,Mostly Cloudy,30,2013-08-28 17:58:00
1:58 PM,86.7,66.2,50,30.06,10.0,North,4.6,-,N/A,,Partly Cloudy,10,2013-08-28 18:58:00
2:58 PM,87.8,69.8,55,30.05,10.0,South,9.2,-,N/A,,Clear,190,2013-08-28 19:58:00
3:58 PM,86.0,68.0,55,30.03,10.0,SSW,9.2,-,N/A,,Clear,210,2013-08-28 20:58:00
4:58 PM,86.0,69.8,58,30.03,10.0,SSW,6.9,-,N/A,,Partly Cloudy,210,2013-08-28 21:58:00
5:58 PM,84.0,68.9,60,30.03,10.0,SW,8.1,-,N/A,,Clear,220,2013-08-28 22:58:00
6:58 PM,80.6,69.8,70,30.03,10.0,SW,5.8,-,N/A,,Clear,220,2013-08-28 23:58:00
7:58 PM,79.7,68.5,69,30.02,10.0,SW,3.5,-,N/A,,Clear,230,2013-08-29 00:58:00
8:58 PM,78.6,68.4,71,30.03,10.0,West,2.3,-,N/A,,Clear,260,2013-08-29 01:58:00
9:58 PM,77.7,68.5,73,30.05,10.0,Calm,Calm,-,N/A,,Clear,0,2013-08-29 02:58:00
10:58 PM,77.9,71.2,80,30.05,10.0,Calm,Calm,-,N/A,,Partly Cloudy,0,2013-08-29 03:58:00
11:58 PM,77.2,70.2,79,30.05,10.0,Calm,Calm,-,N/A,,Partly Cloudy,0,2013-08-29 04:58:00